Time,TemperatureF,DewpointF,PressureIn,WindDirection,WindDirectionDegrees,WindSpeedMPH,WindSpeedGustMPH,Humidity,HourlyPrecipIn,Conditions,Clouds,dailyrainin,SolarRadiationWatts/m^2,SoftwareType,DateUTC
2013-08-29 00:15:00,60.0,52.8,30.26,East,90,0.0,1.0,77,0.00,CLR,SKC,0.00,0.0,WeatherDisplay:10.37,2013-08-29 06:15:00,
2013-08-29 00:45:00,59.0,52.1,30.27,East,90,0.0,1.0,78,0.00,CLR,SKC,0.00,0.0,WeatherDisplay:10.37,2013-08-29 06:45:00,
2013-08-29 01:15:00,57.9,51.5,30.27,East,90,0.0,1.0,79,0.00,CLR,SKC,0.00,0.0,WeatherDisplay:10.37,2013-08-29 07:15:00,
2013-08-29 01:45:00,57.2,51.1,30.28,East,90,0.0,1.0,80,0.00,CLR,SKC,0.00,0.0,WeatherDisplay:10.37,2013-08-29 07:45:00,
2013-08-29 02:15:00,57.4,50.9,30.28,East,90,0.0,1.0,79,0.00,CLR,SKC,0.00,0.0,WeatherDisplay:10.37,2013-08-29 08:15:00,
2013-08-29 02:45:00,56.9,51.4,30.28,East,90,0.0,2.0,82,0.00,CLR,SKC,0.00,0.0,WeatherDisplay:10.37,2013-08-29 08:45:00,
2013-08-29 03:15:00,57.8,51.0,30.28,East,90,0.0,1.0,78,0.00,CLR,SKC,0.00,0.0,WeatherDisplay:10.37,2013-08-29 09:15:00,
2013-08-29 03:45:00,56.5,50.7,30.28,East,90,0.0,1.0,81,0.00,CLR,SKC,0.00,0.0,WeatherDisplay:10.37,2013-08-29 09:45:00,
2013-08-29 04:15:00,56.8,50.4,30.28,East,90,0.0,2.0,79,0.00,CLR,SKC,0.00,0.0,WeatherDisplay:10.37,2013-08-29 10:15:00,
2013-08-29 04:45:00,56.2,49.8,30.28,East,90,0.0,1.0,79,0.00,CLR,SKC,0.00,0.0,WeatherDisplay:10.37,2013-08-29 10:45:00,
2013-08-29 05:15:00,56.9,50.1,30.28,East,90,0.0,0.0,78,0.00,CLR,SKC,0.00,0.0,WeatherDisplay:10.37,2013-08-29 11:15:00,
2013-08-29 05:45:00,56.2,49.8,30.28,East,90,0.0,1.0,79,0.00,CLR,SKC,0.00,0.0,WeatherDisplay:10.37,2013-08-29 11:45:00,
2013-08-29 06:15:00,55.5,49.7,30.30,East,90,0.0,1.0,81,0.00,CLR,SKC,0.00,0.0,WeatherDisplay:10.37,2013-08-29 12:15:00,
2013-08-29 06:45:00,55.3,49.6,30.30,East,90,0.0,0.0,81,0.00,OVC,SKC,0.00,0.0,WeatherDisplay:10.37,2013-08-29 12:45:00,
2013-08-29 07:15:00,55.2,49.8,30.31,East,90,0.0,1.0,82,0.00,BKN,SKC,0.00,16.0,WeatherDisplay:10.37,2013-08-29 13:15:00,
2013-08-29 07:45:00,57.4,51.2,30.33,South,169,0.0,0.0,80,0.00,CLR,SKC,0.00,98.0,WeatherDisplay:10.37,2013-08-29 13:45:00,
2013-08-29 08:15:00,61.2,53.6,30.33,SSW,209,0.0,1.0,76,0.00,CLR,SKC,0.00,204.0,WeatherDisplay:10.37,2013-08-29 14:15:00,
2013-08-29 08:45:00,62.3,54.3,30.33,WSW,258,0.0,3.0,75,0.00,CLR,SKC,0.00,299.0,WeatherDisplay:10.37,2013-08-29 14:45:00,
2013-08-29 09:15:00,66.6,54.0,30.33,West,264,1.0,3.0,64,0.00,CLR,SKC,0.00,399.0,WeatherDisplay:10.37,2013-08-29 15:15:00,
2013-08-29 09:45:00,71.0,55.0,30.33,West,264,1.0,3.0,57,0.00,CLR,SKC,0.00,499.0,WeatherDisplay:10.37,2013-08-29 15:45:00,
2013-08-29 10:15:00,69.7,55.7,30.33,WNW,291,2.0,4.0,61,0.00,CLR,SKC,0.00,582.0,WeatherDisplay:10.37,2013-08-29 16:15:00,
2013-08-29 10:45:00,71.3,55.8,30.33,WNW,286,2.0,4.0,58,0.00,CLR,SKC,0.00,661.0,WeatherDisplay:10.37,2013-08-29 16:45:00,
2013-08-29 11:15:00,75.8,56.4,30.32,WNW,285,1.0,3.0,51,0.00,CLR,SKC,0.00,735.0,WeatherDisplay:10.37,2013-08-29 17:15:00,
2013-08-29 11:45:00,76.1,56.1,30.31,West,268,3.0,6.0,50,0.00,CLR,SKC,0.00,800.0,WeatherDisplay:10.37,2013-08-29 17:45:00,
2013-08-29 12:15:00,80.5,55.9,30.30,WNW,282,2.0,5.0,43,0.00,CLR,SKC,0.00,837.0,WeatherDisplay:10.37,2013-08-29 18:15:00,
2013-08-29 12:45:00,81.3,54.6,30.29,SSW,213,2.0,5.0,40,0.00,CLR,SKC,0.00,884.0,WeatherDisplay:10.37,2013-08-29 18:45:00,
2013-08-29 13:15:00,82.6,53.0,30.27,NW,308,2.0,6.0,36,0.00,CLR,SKC,0.00,881.0,WeatherDisplay:10.37,2013-08-29 19:15:00,
2013-08-29 13:45:00,83.7,53.1,30.26,WNW,298,3.0,6.0,35,0.00,CLR,SKC,0.00,879.0,WeatherDisplay:10.37,2013-08-29 19:45:00,
2013-08-29 14:15:00,84.0,51.8,30.25,NW,320,1.0,8.0,33,0.00,CLR,SKC,0.00,868.0,WeatherDisplay:10.37,2013-08-29 20:15:00,
2013-08-29 14:45:00,86.5,53.2,30.25,West,274,2.0,4.0,32,0.00,CLR,SKC,0.00,835.0,WeatherDisplay:10.37,2013-08-29 20:45:00,
2013-08-29 15:15:00,86.0,50.1,30.23,NW,305,5.0,6.0,29,0.00,CLR,SKC,0.00,788.0,WeatherDisplay:10.37,2013-08-29 21:15:00,
2013-08-29 15:45:00,86.5,45.4,30.22,SW,216,0.0,5.0,24,0.00,CLR,SKC,0.00,719.0,WeatherDisplay:10.37,2013-08-29 21:45:00,
2013-08-29 16:15:00,87.1,49.0,30.22,SSW,213,3.0,5.0,27,0.00,CLR,SKC,0.00,659.0,WeatherDisplay:10.37,2013-08-29 22:15:00,
2013-08-29 16:45:00,87.2,48.1,30.21,SW,234,3.0,7.0,26,0.00,CLR,SKC,0.00,566.0,WeatherDisplay:10.37,2013-08-29 22:45:00,
2013-08-29 17:15:00,86.3,48.4,30.20,NW,308,3.0,5.0,27,0.00,CLR,SKC,0.00,473.0,WeatherDisplay:10.37,2013-08-29 23:15:00,
2013-08-29 17:45:00,86.1,51.0,30.20,WNW,302,2.0,6.0,30,0.00,CLR,SKC,0.00,383.0,WeatherDisplay:10.37,2013-08-29 23:45:00,
2013-08-29 18:15:00,86.0,48.1,30.19,WNW,303,1.0,4.0,27,0.00,CLR,SKC,0.00,279.0,WeatherDisplay:10.37,2013-08-30 00:15:00,
2013-08-29 18:46:00,80.8,54.2,30.19,WNW,286,0.0,2.0,40,0.00,BKN,SKC,0.00,35.0,WeatherDisplay:10.37,2013-08-30 00:46:00,
2013-08-29 19:16:00,80.6,53.4,30.18,WNW,286,0.0,0.0,39,0.00,BKN,SKC,0.00,47.0,WeatherDisplay:10.37,2013-08-30 01:16:00,
2013-08-29 19:45:00,77.9,54.2,30.18,SSE,150,1.0,2.0,44,0.00,BKN,SKC,0.00,11.0,WeatherDisplay:10.37,2013-08-30 01:45:00,
2013-08-29 20:15:00,76.3,49.5,30.19,SE,126,0.0,4.0,39,0.00,OVC,SKC,0.00,0.0,WeatherDisplay:10.37,2013-08-30 02:15:00,
2013-08-29 20:45:00,75.3,49.3,30.20,SE,126,0.0,3.0,40,0.00,CLR,SKC,0.00,0.0,WeatherDisplay:10.37,2013-08-30 02:45:00,
2013-08-29 21:15:00,73.7,48.5,30.21,SE,145,2.0,5.0,41,0.00,CLR,SKC,0.00,0.0,WeatherDisplay:10.37,2013-08-30 03:15:00,
2013-08-29 21:45:00,70.9,49.7,30.22,SW,227,0.0,1.0,47,0.00,CLR,SKC,0.00,0.0,WeatherDisplay:10.37,2013-08-30 03:45:00,
2013-08-29 22:15:00,69.4,48.9,30.23,SE,126,0.0,2.0,48,0.00,CLR,SKC,0.00,0.0,WeatherDisplay:10.37,2013-08-30 04:15:00,
2013-08-29 22:45:00,69.2,48.7,30.23,SE,126,0.0,1.0,48,0.00,CLR,SKC,0.00,0.0,WeatherDisplay:10.37,2013-08-30 04:45:00,
2013-08-29 23:15:00,66.9,50.2,30.24,SE,126,0.0,1.0,55,0.00,CLR,SKC,0.00,0.0,WeatherDisplay:10.37,2013-08-30 05:15:00,
2013-08-29 23:45:00,69.3,49.8,30.23,SE,126,1.0,2.0,50,0.00,CLR,SKC,0.00,0.0,WeatherDisplay:10.37,2013-08-30 05:45:00,